| time (UTC) | temp F | wind direction | speed knots | gust knots | rain 1hr in | rain 24hr in | rain mn in | humidity % | barometer mb |
| 20260902221542 | 91 | 225 | 3.5 | 11.3 | 0.00 | 0.00 | 0.00 | 56 | 1012.7 |
| 20260902221020 | 90 | 236 | 2.6 | 8.7 | 0.00 | 0.00 | 0.00 | 57 | 1012.8 |
| 20260902220517 | 90 | 225 | 0.0 | 8.7 | 0.00 | 0.00 | 0.00 | 58 | 1012.8 |
| 20260902220045 | 90 | 214 | 3.5 | 8.7 | 0.00 | 0.00 | 0.00 | 57 | 1012.7 |
| 20260902215516 | 90 | 253 | 2.6 | 10.4 | 0.00 | 0.00 | 0.00 | 55 | 1012.9 |
| 20260902215016 | 90 | 228 | 4.3 | 10.4 | 0.00 | 0.00 | 0.00 | 55 | 1012.7 |
| 20260902214539 | 90 | 148 | 4.3 | 12.2 | 0.00 | 0.00 | 0.00 | 55 | 1012.4 |
| 20260902214018 | 90 | 254 | 5.2 | 12.2 | 0.00 | 0.00 | 0.00 | 54 | 1012.5 |
| 20260902213521 | 90 | 208 | 4.3 | 12.2 | 0.00 | 0.00 | 0.00 | 54 | 1012.5 |
| 20260902213038 | 90 | 226 | 4.3 | 11.3 | 0.00 | 0.00 | 0.00 | 53 | 1012.6 |
| 20260902212520 | 91 | 269 | 4.3 | 9.6 | 0.00 | 0.00 | 0.00 | 53 | 1012.6 |
| 20260902212020 | 91 | 199 | 2.6 | 9.6 | 0.00 | 0.00 | 0.00 | 56 | 1012.7 |
| 20260902211533 | 90 | 217 | 4.3 | 12.2 | 0.00 | 0.00 | 0.00 | 56 | 1012.8 |
| 20260902211019 | 90 | 220 | 5.2 | 12.2 | 0.00 | 0.00 | 0.00 | 57 | 1012.9 |
| 20260902210520 | 90 | 207 | 3.5 | 9.6 | 0.00 | 0.00 | 0.00 | 56 | 1012.8 |
| 20260902210105 | 91 | 263 | 1.7 | 9.6 | 0.00 | 0.00 | 0.00 | 56 | 1012.9 |
| 20260902205518 | 90 | 229 | 1.7 | 8.7 | 0.00 | 0.00 | 0.00 | 55 | 1013.0 |
| 20260902205019 | 90 | 226 | 3.5 | 9.6 | 0.00 | 0.00 | 0.00 | 54 | 1013.1 |
| 20260902204541 | 90 | 222 | 3.5 | 14.8 | 0.00 | 0.00 | 0.00 | 55 | 1013.2 |
| 20260902204021 | 90 | 135 | 7.8 | 14.8 | 0.00 | 0.00 | 0.00 | 53 | 1013.2 |
| 20260902203520 | 90 | 234 | 6.1 | 14.8 | 0.00 | 0.00 | 0.00 | 54 | 1013.3 |
| 20260902203038 | 91 | 238 | 3.5 | 11.3 | 0.00 | 0.00 | 0.00 | 55 | 1013.4 |
| 20260902202519 | 91 | 241 | 4.3 | 11.3 | 0.00 | 0.00 | 0.00 | 55 | 1013.4 |
| 20260902202018 | 91 | 217 | 3.5 | 11.3 | 0.00 | 0.00 | 0.00 | 55 | 1013.4 |
| 20260902201537 | 91 | 218 | 3.5 | 10.4 | 0.00 | 0.00 | 0.00 | 55 | 1013.5 |
| 20260902201019 | 91 | 175 | 5.2 | 9.6 | 0.00 | 0.00 | 0.00 | 54 | 1013.6 |
| 20260902200519 | 92 | 247 | 4.3 | 13.0 | 0.00 | 0.00 | 0.00 | 53 | 1013.7 |
| 20260902200036 | 92 | 241 | 4.3 | 13.9 | 0.00 | 0.00 | 0.00 | 53 | 1013.9 |
| 20260902195516 | 92 | 220 | 6.1 | 13.9 | 0.00 | 0.00 | 0.00 | 52 | 1013.9 |
| 20260902195017 | 92 | 203 | 4.3 | 12.2 | 0.00 | 0.00 | 0.00 | 51 | 1014.0 |
| 20260902194539 | 92 | 261 | 4.3 | 12.2 | 0.00 | 0.00 | 0.00 | 53 | 1014.0 |
| 20260902194016 | 92 | 240 | 3.5 | 10.4 | 0.00 | 0.00 | 0.00 | 53 | 1013.9 |
| 20260902193519 | 92 | 316 | 3.5 | 7.0 | 0.00 | 0.00 | 0.00 | 53 | 1014.1 |
| 20260902193040 | 92 | 271 | 2.6 | 12.2 | 0.00 | 0.00 | 0.00 | 53 | 1014.2 |
| 20260902192519 | 91 | 250 | 2.6 | 12.2 | 0.00 | 0.00 | 0.00 | 53 | 1014.3 |
| 20260902192019 | 92 | 277 | 3.5 | 12.2 | 0.00 | 0.00 | 0.00 | 54 | 1014.3 |
| 20260902191543 | 92 | 241 | 6.1 | 13.0 | 0.00 | 0.00 | 0.00 | 51 | 1014.4 |
| 20260902191020 | 92 | 264 | 4.3 | 13.9 | 0.00 | 0.00 | 0.00 | 51 | 1014.4 |
| 20260902190518 | 92 | 206 | 6.1 | 13.9 | 0.00 | 0.00 | 0.00 | 50 | 1014.4 |
| 20260902190039 | 91 | 269 | 4.3 | 10.4 | 0.00 | 0.00 | 0.00 | 52 | 1014.4 |
| 20260902185518 | 91 | 161 | 4.3 | 12.2 | 0.00 | 0.00 | 0.00 | 50 | 1014.4 |
| 20260902185018 | 91 | 217 | 5.2 | 12.2 | 0.00 | 0.00 | 0.00 | 52 | 1014.4 |
| 20260902184540 | 91 | 218 | 5.2 | 13.0 | 0.00 | 0.00 | 0.00 | 52 | 1014.3 |
| 20260902184018 | 92 | 231 | 3.5 | 13.0 | 0.00 | 0.00 | 0.00 | 54 | 1014.2 |
| 20260902183518 | 92 | 240 | 3.5 | 13.0 | 0.00 | 0.00 | 0.00 | 53 | 1014.2 |
| 20260902183039 | 91 | 219 | 4.3 | 9.6 | 0.00 | 0.00 | 0.00 | 55 | 1014.2 |
| 20260902182523 | 92 | 225 | 3.5 | 9.6 | 0.00 | 0.00 | 0.00 | 54 | 1014.2 |
| 20260902182021 | 91 | 242 | 2.6 | 7.0 | 0.00 | 0.00 | 0.00 | 55 | 1014.4 |
| 20260902181540 | 91 | 271 | 1.7 | 9.6 | 0.00 | 0.00 | 0.00 | 55 | 1014.4 |
| 20260902181028 | 91 | 266 | 4.3 | 9.6 | 0.00 | 0.00 | 0.00 | 54 | 1014.3 |
| 20260902180518 | 91 | 212 | 2.6 | 8.7 | 0.00 | 0.00 | 0.00 | 55 | 1014.3 |
| 20260902180050 | 91 | 212 | 5.2 | 10.4 | 0.00 | 0.00 | 0.00 | 56 | 1014.2 |
| 20260902175520 | 91 | 172 | 4.3 | 10.4 | 0.00 | 0.00 | 0.00 | 56 | 1014.2 |
| 20260902175022 | 91 | 170 | 3.5 | 7.8 | 0.00 | 0.00 | 0.00 | 57 | 1014.3 |
| 20260902174538 | 91 | 201 | 2.6 | 8.7 | 0.00 | 0.00 | 0.00 | 57 | 1014.4 |
| 20260902174020 | 90 | 236 | 2.6 | 8.7 | 0.00 | 0.00 | 0.00 | 58 | 1014.5 |
| 20260902173520 | 90 | 243 | 3.5 | 7.8 | 0.00 | 0.00 | 0.00 | 58 | 1014.6 |
| 20260902173034 | 91 | 225 | 1.7 | 9.6 | 0.00 | 0.00 | 0.00 | 58 | 1014.7 |
| 20260902172519 | 91 | 312 | 1.7 | 10.4 | 0.00 | 0.00 | 0.00 | 57 | 1014.9 |
| 20260902172019 | 90 | 200 | 4.3 | 10.4 | 0.00 | 0.00 | 0.00 | 57 | 1015.0 |
| 20260902171540 | 91 | 186 | 2.6 | 10.4 | 0.00 | 0.00 | 0.00 | 57 | 1015.0 |
| 20260902171021 | 90 | 227 | 2.6 | 7.8 | 0.00 | 0.00 | 0.00 | 60 | 1015.1 |
| 20260902170520 | 90 | 217 | 1.7 | 7.8 | 0.00 | 0.00 | 0.00 | 60 | 1015.3 |
| 20260902170038 | 90 | 260 | 0.9 | 6.1 | 0.00 | 0.00 | 0.00 | 61 | 1015.3 |
| 20260902165519 | 90 | 243 | 0.9 | 6.1 | 0.00 | 0.00 | 0.00 | 61 | 1015.4 |
| 20260902165019 | 90 | 226 | 0.0 | 7.0 | 0.00 | 0.00 | 0.00 | 64 | 1015.5 |
| 20260902164537 | 89 | 245 | 1.7 | 7.0 | 0.00 | 0.00 | 0.00 | 64 | 1015.6 |
| 20260902164018 | 89 | 313 | 2.6 | 8.7 | 0.00 | 0.00 | 0.00 | 62 | 1015.6 |
| 20260902163518 | 89 | 194 | 2.6 | 10.4 | 0.00 | 0.00 | 0.00 | 61 | 1015.7 |
| 20260902163038 | 89 | 297 | 3.5 | 10.4 | 0.00 | 0.00 | 0.00 | 62 | 1015.7 |
| 20260902162515 | 89 | 238 | 3.5 | 10.4 | 0.00 | 0.00 | 0.00 | 62 | 1015.8 |
| 20260902162016 | 89 | 254 | 3.5 | 10.4 | 0.00 | 0.00 | 0.00 | 63 | 1015.7 |
| 20260902161539 | 89 | 233 | 4.3 | 10.4 | 0.00 | 0.00 | 0.00 | 62 | 1015.7 |
| 20260902161021 | 89 | 240 | 3.5 | 11.3 | 0.00 | 0.00 | 0.00 | 62 | 1015.7 |
| 20260902160520 | 89 | 192 | 3.5 | 11.3 | 0.00 | 0.00 | 0.00 | 62 | 1015.7 |
| 20260902160040 | 89 | 250 | 4.3 | 11.3 | 0.00 | 0.00 | 0.00 | 59 | 1015.7 |
| 20260902155520 | 90 | 258 | 2.6 | 7.8 | 0.00 | 0.00 | 0.00 | 60 | 1015.7 |
| 20260902155020 | 89 | 212 | 2.6 | 7.8 | 0.00 | 0.00 | 0.00 | 61 | 1015.4 |
| 20260902154533 | 89 | 264 | 3.5 | 7.0 | 0.00 | 0.00 | 0.00 | 61 | 1015.4 |
| 20260902154016 | 89 | 0 | 0.9 | 9.6 | 0.00 | 0.00 | 0.00 | 63 | 1015.3 |
| 20260902153517 | 88 | 184 | 3.5 | 9.6 | 0.00 | 0.00 | 0.00 | 63 | 1015.4 |
| 20260902153041 | 88 | 232 | 1.7 | 7.8 | 0.00 | 0.00 | 0.00 | 63 | 1015.3 |
| 20260902152519 | 88 | 252 | 4.3 | 7.8 | 0.00 | 0.00 | 0.00 | 63 | 1015.3 |
| 20260902152017 | 88 | 228 | 2.6 | 9.6 | 0.00 | 0.00 | 0.00 | 62 | 1015.4 |
| 20260902151536 | 88 | 303 | 2.6 | 9.6 | 0.00 | 0.00 | 0.00 | 64 | 1015.3 |
| 20260902151018 | 88 | 177 | 4.3 | 8.7 | 0.00 | 0.00 | 0.00 | 65 | 1015.4 |
| 20260902150518 | 88 | 165 | 0.9 | 13.0 | 0.00 | 0.00 | 0.00 | 67 | 1015.3 |
| 20260902150038 | 87 | 0 | 2.6 | 13.0 | 0.00 | 0.00 | 0.00 | 67 | 1015.3 |
| 20260902145516 | 87 | 206 | 5.2 | 13.0 | 0.00 | 0.00 | 0.00 | 66 | 1015.3 |
| 20260902145017 | 87 | 213 | 1.7 | 8.7 | 0.00 | 0.00 | 0.00 | 69 | 1015.4 |
| 20260902144552 | 86 | 240 | 4.3 | 8.7 | 0.00 | 0.00 | 0.00 | 69 | 1015.3 |
| 20260902144020 | 86 | 212 | 3.5 | 9.6 | 0.00 | 0.00 | 0.00 | 69 | 1015.3 |
| 20260902143520 | 86 | 235 | 3.5 | 9.6 | 0.00 | 0.00 | 0.00 | 70 | 1015.3 |
| 20260902143037 | 86 | 196 | 1.7 | 7.0 | 0.00 | 0.00 | 0.00 | 71 | 1015.3 |
| 20260902142517 | 86 | 321 | 1.7 | 7.0 | 0.00 | 0.00 | 0.00 | 72 | 1015.4 |
| 20260902142016 | 85 | 236 | 0.9 | 7.0 | 0.00 | 0.00 | 0.00 | 73 | 1015.3 |
| 20260902141539 | 85 | 235 | 2.6 | 7.0 | 0.00 | 0.00 | 0.00 | 73 | 1015.2 |
| 20260902141016 | 85 | 226 | 0.0 | 6.1 | 0.00 | 0.00 | 0.00 | 74 | 1015.2 |
| 20260902140518 | 84 | 0 | 0.9 | 6.1 | 0.00 | 0.00 | 0.00 | 76 | 1015.3 |
| 20260902140038 | 84 | 236 | 0.0 | 4.3 | 0.00 | 0.00 | 0.00 | 76 | 1015.3 |
| 20260902135515 | 84 | 214 | 0.0 | 4.3 | 0.00 | 0.00 | 0.00 | 77 | 1015.3 |
| 20260902135016 | 83 | 188 | 0.0 | 4.3 | 0.00 | 0.00 | 0.00 | 78 | 1015.3 |
| 20260902134536 | 82 | 248 | 0.0 | 4.3 | 0.00 | 0.00 | 0.00 | 80 | 1015.3 |
| 20260902134019 | 82 | 237 | 0.9 | 5.2 | 0.00 | 0.00 | 0.00 | 81 | 1015.3 |
| 20260902133523 | 81 | 231 | 2.6 | 5.2 | 0.00 | 0.00 | 0.00 | 81 | 1015.5 |
| 20260902133038 | 81 | 149 | 0.9 | 4.3 | 0.00 | 0.00 | 0.00 | 83 | 1015.6 |
| 20260902132519 | 81 | 250 | 1.7 | 4.3 | 0.00 | 0.00 | 0.00 | 83 | 1015.5 |
| 20260902132021 | 80 | 242 | 0.9 | 8.7 | 0.00 | 0.00 | 0.00 | 84 | 1015.6 |
| 20260902131538 | 80 | 252 | 2.6 | 8.7 | 0.00 | 0.00 | 0.00 | 86 | 1015.5 |
| 20260902131019 | 80 | 245 | 1.7 | 7.0 | 0.00 | 0.00 | 0.00 | 85 | 1015.5 |
| 20260902130516 | 79 | 263 | 1.7 | 7.0 | 0.00 | 0.00 | 0.00 | 86 | 1015.5 |
| 20260902130039 | 79 | 248 | 1.7 | 7.0 | 0.00 | 0.00 | 0.00 | 86 | 1015.5 |
| 20260902125518 | 79 | 231 | 0.0 | 4.3 | 0.00 | 0.00 | 0.00 | 87 | 1015.4 |
| 20260902125016 | 78 | 258 | 0.9 | 6.1 | 0.00 | 0.00 | 0.00 | 88 | 1015.4 |
| 20260902124541 | 78 | 216 | 1.7 | 6.1 | 0.00 | 0.00 | 0.00 | 88 | 1015.5 |
| 20260902124020 | 78 | 247 | 0.9 | 6.1 | 0.00 | 0.00 | 0.00 | 89 | 1015.4 |
| 20260902123520 | 77 | 0 | 0.9 | 5.2 | 0.00 | 0.00 | 0.00 | 90 | 1015.5 |
| 20260902123035 | 77 | 0 | 0.9 | 5.2 | 0.00 | 0.00 | 0.00 | 91 | 1015.5 |
| 20260902122519 | 76 | 0 | 0.0 | 3.5 | 0.00 | 0.00 | 0.00 | 91 | 1015.4 |
| 20260902122019 | 76 | 0 | 0.0 | 4.3 | 0.00 | 0.00 | 0.00 | 91 | 1015.4 |
| 20260902121536 | 76 | 248 | 0.9 | 4.3 | 0.00 | 0.00 | 0.00 | 91 | 1015.4 |
| 20260902121021 | 76 | 233 | 0.9 | 3.5 | 0.00 | 0.00 | 0.00 | 91 | 1015.3 |
| 20260902120518 | 76 | 0 | 0.9 | 4.3 | 0.00 | 0.00 | 0.00 | 91 | 1015.5 |
| 20260902120045 | 76 | 0 | 1.7 | 4.3 | 0.00 | 0.00 | 0.00 | 91 | 1015.4 |
| 20260902115518 | 76 | 0 | 0.9 | 5.2 | 0.00 | 0.00 | 0.00 | 91 | 1015.4 |
| 20260902115016 | 76 | 0 | 0.9 | 5.2 | 0.00 | 0.00 | 0.00 | 91 | 1015.5 |
| 20260902114538 | 76 | 268 | 2.6 | 5.2 | 0.00 | 0.00 | 0.00 | 91 | 1015.3 |
| 20260902114021 | 76 | 249 | 0.9 | 5.2 | 0.00 | 0.00 | 0.00 | 91 | 1015.1 |
| 20260902113520 | 76 | 0 | 0.9 | 4.3 | 0.00 | 0.00 | 0.00 | 91 | 1015.1 |
| 20260902113044 | 76 | 210 | 2.6 | 7.0 | 0.00 | 0.00 | 0.00 | 91 | 1015.3 |
| 20260902112518 | 76 | 237 | 1.7 | 7.0 | 0.00 | 0.00 | 0.00 | 90 | 1015.2 |
| 20260902112019 | 76 | 274 | 0.9 | 7.0 | 0.00 | 0.00 | 0.00 | 90 | 1015.1 |
| 20260902111542 | 77 | 223 | 1.7 | 5.2 | 0.00 | 0.00 | 0.00 | 90 | 1015.1 |
| 20260902111016 | 77 | 233 | 1.7 | 7.8 | 0.00 | 0.00 | 0.00 | 90 | 1015.1 |
| 20260902110518 | 77 | 226 | 1.7 | 8.7 | 0.00 | 0.00 | 0.00 | 90 | 1015.0 |
| 20260902110033 | 77 | 180 | 2.6 | 8.7 | 0.00 | 0.00 | 0.00 | 89 | 1015.3 |
| 20260902105517 | 77 | 223 | 2.6 | 12.2 | 0.00 | 0.00 | 0.00 | 90 | 1015.5 |
| 20260902105016 | 77 | 251 | 1.7 | 12.2 | 0.00 | 0.00 | 0.00 | 90 | 1015.7 |
| 20260902104540 | 77 | 262 | 3.5 | 12.2 | 0.00 | 0.00 | 0.00 | 90 | 1015.8 |
| 20260902104019 | 76 | 270 | 1.7 | 6.1 | 0.00 | 0.00 | 0.00 | 91 | 1016.0 |
| 20260902103515 | 76 | 312 | 2.6 | 6.1 | 0.00 | 0.00 | 0.00 | 91 | 1015.8 |
| 20260902103035 | 76 | 232 | 1.7 | 5.2 | 0.00 | 0.00 | 0.00 | 91 | 1015.5 |
| 20260902102519 | 76 | 247 | 2.6 | 5.2 | 0.00 | 0.00 | 0.00 | 91 | 1015.5 |
| 20260902102018 | 76 | 252 | 1.7 | 5.2 | 0.00 | 0.00 | 0.00 | 92 | 1015.4 |
| 20260902101537 | 76 | 0 | 1.7 | 4.3 | 0.00 | 0.00 | 0.00 | 92 | 1015.5 |
| 20260902101016 | 76 | 0 | 0.9 | 4.3 | 0.00 | 0.00 | 0.00 | 92 | 1015.5 |
| 20260902100519 | 76 | 242 | 0.9 | 2.6 | 0.00 | 0.00 | 0.00 | 92 | 1015.2 |
| 20260902100035 | 76 | 0 | 0.0 | 2.6 | 0.00 | 0.00 | 0.00 | 92 | 1015.0 |
| 20260902095518 | 76 | 243 | 0.0 | 2.6 | 0.00 | 0.00 | 0.00 | 92 | 1015.0 |
| 20260902095017 | 76 | 231 | 0.0 | 2.6 | 0.00 | 0.00 | 0.00 | 92 | 1015.1 |
| 20260902094533 | 76 | 0 | 0.0 | 1.7 | 0.00 | 0.00 | 0.00 | 92 | 1015.1 |
| 20260902094018 | 76 | 0 | 0.0 | 0.9 | 0.00 | 0.00 | 0.00 | 92 | 1015.1 |
| 20260902093518 | 76 | 0 | 0.0 | 0.9 | 0.00 | 0.00 | 0.00 | 92 | 1015.2 |
| 20260902093037 | 76 | 0 | 0.0 | 2.6 | 0.00 | 0.00 | 0.00 | 92 | 1015.3 |
| 20260902092522 | 76 | 0 | 0.0 | 2.6 | 0.00 | 0.00 | 0.00 | 91 | 1015.3 |
| 20260902092018 | 76 | 238 | 0.0 | 1.7 | 0.00 | 0.00 | 0.00 | 91 | 1015.3 |
| 20260902091541 | 76 | 0 | 0.0 | 1.7 | 0.00 | 0.00 | 0.00 | 91 | 1015.3 |
| 20260902091016 | 76 | 259 | 0.0 | 2.6 | 0.00 | 0.00 | 0.00 | 91 | 1015.3 |
| 20260902090516 | 76 | 0 | 0.0 | 2.6 | 0.00 | 0.00 | 0.00 | 91 | 1015.3 |
| 20260902090033 | 76 | 242 | 0.0 | 2.6 | 0.00 | 0.00 | 0.00 | 91 | 1015.2 |
| 20260902085521 | 76 | 0 | 0.0 | 3.5 | 0.00 | 0.00 | 0.00 | 91 | 1015.0 |
| 20260902085022 | 76 | 0 | 0.0 | 3.5 | 0.00 | 0.00 | 0.00 | 91 | 1015.0 |
| 20260902084535 | 76 | 0 | 0.9 | 3.5 | 0.00 | 0.00 | 0.00 | 91 | 1014.9 |
| 20260902084021 | 76 | 0 | 0.9 | 3.5 | 0.00 | 0.00 | 0.00 | 91 | 1014.9 |
| 20260902083519 | 76 | 221 | 0.9 | 4.3 | 0.00 | 0.00 | 0.00 | 91 | 1014.9 |
| 20260902083034 | 76 | 207 | 0.9 | 4.3 | 0.00 | 0.00 | 0.00 | 91 | 1014.9 |
| 20260902082520 | 76 | 228 | 0.9 | 4.3 | 0.00 | 0.00 | 0.00 | 92 | 1015.0 |
| 20260902082020 | 76 | 219 | 0.0 | 4.3 | 0.00 | 0.00 | 0.00 | 92 | 1014.9 |
| 20260902081534 | 76 | 237 | 0.0 | 3.5 | 0.00 | 0.00 | 0.00 | 92 | 1014.9 |
| 20260902081017 | 76 | 0 | 0.0 | 3.5 | 0.00 | 0.00 | 0.00 | 92 | 1014.8 |
| 20260902080517 | 76 | 226 | 0.0 | 3.5 | 0.00 | 0.00 | 0.00 | 92 | 1014.9 |
| 20260902080111 | 76 | 0 | 0.0 | 2.6 | 0.00 | 0.00 | 0.00 | 92 | 1014.9 |
| 20260902075523 | 75 | 245 | 0.9 | 3.5 | 0.00 | 0.00 | 0.00 | 92 | 1015.0 |
| 20260902075020 | 75 | 223 | 0.0 | 3.5 | 0.00 | 0.00 | 0.00 | 93 | 1015.0 |
| 20260902074535 | 74 | 257 | 0.9 | 3.5 | 0.00 | 0.00 | 0.00 | 94 | 1015.1 |
| 20260902074017 | 74 | 0 | 0.0 | 0.9 | 0.00 | 0.00 | 0.00 | 93 | 1014.9 |
| 20260902073518 | 74 | 0 | 0.0 | 0.0 | 0.00 | 0.00 | 0.00 | 92 | 1014.9 |
| 20260902073037 | 74 | 0 | 0.0 | 0.0 | 0.00 | 0.00 | 0.00 | 92 | 1014.9 |
| 20260902072518 | 74 | 0 | 0.0 | 0.9 | 0.00 | 0.00 | 0.00 | 92 | 1014.7 |
| 20260902072021 | 74 | 180 | 0.0 | 0.9 | 0.00 | 0.00 | 0.00 | 92 | 1014.6 |
| 20260902071540 | 74 | 0 | 0.0 | 0.9 | 0.00 | 0.00 | 0.00 | 92 | 1014.7 |
| 20260902071018 | 74 | 0 | 0.0 | 0.9 | 0.00 | 0.00 | 0.00 | 92 | 1014.8 |
| 20260902070518 | 74 | 0 | 0.0 | 0.9 | 0.00 | 0.00 | 0.00 | 92 | 1014.8 |
| 20260902070038 | 74 | 0 | 0.0 | 0.9 | 0.00 | 0.00 | 0.00 | 92 | 1014.8 |
| 20260902065518 | 74 | 0 | 0.0 | 0.9 | 0.00 | 0.00 | 0.00 | 92 | 1014.7 |
| 20260902065021 | 74 | 217 | 0.0 | 0.9 | 0.00 | 0.00 | 0.00 | 92 | 1014.7 |
| 20260902064542 | 74 | 0 | 0.0 | 0.9 | 0.00 | 0.00 | 0.00 | 91 | 1014.7 |
| 20260902064019 | 74 | 0 | 0.0 | 0.0 | 0.00 | 0.00 | 0.00 | 91 | 1014.8 |
| 20260902063522 | 74 | 0 | 0.0 | 0.0 | 0.00 | 0.00 | 0.00 | 91 | 1014.9 |
| 20260902063043 | 74 | 0 | 0.0 | 0.0 | 0.00 | 0.00 | 0.00 | 91 | 1015.0 |
| 20260902062521 | 75 | 0 | 0.0 | 0.0 | 0.00 | 0.00 | 0.00 | 91 | 1015.1 |
| 20260902062018 | 75 | 0 | 0.0 | 0.0 | 0.00 | 0.00 | 0.00 | 91 | 1015.2 |
| 20260902061551 | 75 | 0 | 0.0 | 0.9 | 0.00 | 0.00 | 0.00 | 90 | 1015.3 |
| 20260902061016 | 75 | 0 | 0.0 | 0.9 | 0.00 | 0.00 | 0.00 | 90 | 1015.2 |
| 20260902060518 | 75 | 0 | 0.0 | 0.9 | 0.00 | 0.00 | 0.00 | 90 | 1015.2 |
| 20260902060036 | 75 | 0 | 0.0 | 0.0 | 0.00 | 0.00 | 0.00 | 90 | 1015.3 |
| 20260902055517 | 75 | 0 | 0.0 | 0.0 | 0.00 | 0.00 | 0.00 | 90 | 1015.4 |
| 20260902055017 | 75 | 0 | 0.0 | 0.9 | 0.00 | 0.00 | 0.00 | 90 | 1015.5 |
| 20260902054540 | 75 | 0 | 0.0 | 0.9 | 0.00 | 0.00 | 0.00 | 90 | 1015.4 |
| 20260902054020 | 75 | 0 | 0.0 | 0.9 | 0.00 | 0.00 | 0.00 | 90 | 1015.4 |
| 20260902053519 | 75 | 0 | 0.0 | 0.0 | 0.00 | 0.00 | 0.00 | 90 | 1015.5 |
| 20260902053038 | 75 | 0 | 0.0 | 0.0 | 0.00 | 0.00 | 0.00 | 90 | 1015.5 |
| 20260902052522 | 75 | 0 | 0.0 | 0.9 | 0.00 | 0.00 | 0.00 | 90 | 1015.5 |
| 20260902052018 | 75 | 0 | 0.0 | 1.7 | 0.00 | 0.00 | 0.00 | 90 | 1015.5 |
| 20260902051541 | 75 | 0 | 0.0 | 1.7 | 0.00 | 0.00 | 0.00 | 90 | 1015.5 |
| 20260902051019 | 75 | 0 | 0.0 | 2.6 | 0.00 | 0.00 | 0.00 | 90 | 1015.6 |
| 20260902050517 | 75 | 0 | 0.0 | 2.6 | 0.00 | 0.00 | 0.00 | 90 | 1015.8 |
| 20260902050039 | 75 | 0 | 0.0 | 2.6 | 0.00 | 0.00 | 0.00 | 90 | 1015.8 |
| 20260902045541 | 75 | 184 | 0.0 | 0.0 | 0.00 | 0.00 | 0.00 | 90 | 1015.7 |
| 20260902045020 | 75 | 176 | 0.0 | 0.9 | 0.00 | 0.00 | 0.00 | 90 | 1015.7 |
| 20260902044537 | 75 | 0 | 0.0 | 1.7 | 0.00 | 0.00 | 0.00 | 90 | 1015.8 |
| 20260902044018 | 75 | 0 | 0.0 | 1.7 | 0.00 | 0.00 | 0.00 | 90 | 1015.7 |
| 20260902043516 | 75 | 0 | 0.0 | 1.7 | 0.00 | 0.00 | 0.00 | 90 | 1015.7 |
| 20260902043035 | 75 | 0 | 0.0 | 0.9 | 0.00 | 0.00 | 0.00 | 90 | 1015.7 |
| 20260902042521 | 75 | 0 | 0.0 | 0.0 | 0.00 | 0.00 | 0.00 | 90 | 1015.6 |
| 20260902042017 | 75 | 0 | 0.0 | 0.0 | 0.00 | 0.00 | 0.00 | 90 | 1015.5 |
| 20260902041535 | 75 | 0 | 0.0 | 0.0 | 0.00 | 0.00 | 0.00 | 90 | 1015.5 |
| 20260902041018 | 75 | 0 | 0.0 | 0.0 | 0.00 | 0.00 | 0.00 | 90 | 1015.3 |
| 20260902040518 | 76 | 0 | 0.0 | 0.0 | 0.00 | 0.00 | 0.00 | 90 | 1015.3 |
| 20260902040033 | 76 | 0 | 0.0 | 0.0 | 0.00 | 0.00 | 0.00 | 90 | 1015.4 |
| 20260902035516 | 76 | 0 | 0.0 | 0.0 | 0.00 | 0.00 | 0.00 | 90 | 1015.4 |
| 20260902035016 | 76 | 0 | 0.0 | 0.0 | 0.00 | 0.00 | 0.00 | 90 | 1015.4 |
| 20260902034545 | 76 | 0 | 0.0 | 0.0 | 0.00 | 0.00 | 0.00 | 90 | 1015.5 |
| 20260902034025 | 76 | 0 | 0.0 | 0.0 | 0.00 | 0.00 | 0.00 | 89 | 1015.5 |
| 20260902033517 | 76 | 0 | 0.0 | 0.0 | 0.00 | 0.00 | 0.00 | 89 | 1015.5 |
| 20260902033052 | 76 | 0 | 0.0 | 0.9 | 0.00 | 0.00 | 0.00 | 89 | 1015.5 |
| 20260902032518 | 76 | 0 | 0.0 | 0.9 | 0.00 | 0.00 | 0.00 | 89 | 1015.5 |
| 20260902032019 | 76 | 0 | 0.0 | 0.9 | 0.00 | 0.00 | 0.00 | 89 | 1015.4 |
| 20260902031534 | 77 | 0 | 0.0 | 0.0 | 0.00 | 0.00 | 0.00 | 89 | 1015.4 |
| 20260902031020 | 77 | 0 | 0.0 | 0.0 | 0.00 | 0.00 | 0.00 | 89 | 1015.3 |
| 20260902030518 | 77 | 0 | 0.0 | 0.9 | 0.00 | 0.00 | 0.00 | 89 | 1015.2 |
| 20260902030035 | 77 | 0 | 0.0 | 0.9 | 0.00 | 0.00 | 0.00 | 88 | 1015.2 |
| 20260902025524 | 77 | 0 | 0.0 | 0.0 | 0.00 | 0.00 | 0.00 | 88 | 1015.0 |
| 20260902025017 | 78 | 0 | 0.0 | 0.0 | 0.00 | 0.00 | 0.00 | 87 | 1015.0 |
| 20260902024543 | 78 | 0 | 0.0 | 0.0 | 0.00 | 0.00 | 0.00 | 87 | 1015.1 |
| 20260902024017 | 78 | 0 | 0.0 | 2.6 | 0.00 | 0.00 | 0.00 | 87 | 1015.0 |
| 20260902023516 | 78 | 0 | 0.0 | 2.6 | 0.00 | 0.00 | 0.00 | 87 | 1015.1 |
| 20260902023032 | 78 | 0 | 0.0 | 2.6 | 0.00 | 0.00 | 0.00 | 87 | 1015.0 |
| 20260902022518 | 78 | 0 | 0.0 | 0.0 | 0.00 | 0.00 | 0.00 | 86 | 1015.1 |
| 20260902022016 | 79 | 0 | 0.0 | 0.0 | 0.00 | 0.00 | 0.00 | 86 | 1015.0 |
| 20260902021533 | 79 | 0 | 0.0 | 0.0 | 0.00 | 0.00 | 0.00 | 85 | 1014.9 |
| 20260902021019 | 79 | 0 | 0.0 | 0.9 | 0.00 | 0.00 | 0.00 | 85 | 1015.0 |
| 20260902020517 | 79 | 0 | 0.0 | 1.7 | 0.00 | 0.00 | 0.00 | 84 | 1015.0 |
| 20260902020039 | 80 | 0 | 0.0 | 1.7 | 0.00 | 0.00 | 0.00 | 84 | 1015.1 |
| 20260902015517 | 80 | 0 | 0.0 | 2.6 | 0.00 | 0.00 | 0.00 | 84 | 1015.1 |
| 20260902015018 | 80 | 0 | 0.0 | 3.5 | 0.00 | 0.00 | 0.00 | 83 | 1015.1 |
| 20260902014535 | 80 | 248 | 0.9 | 4.3 | 0.00 | 0.00 | 0.00 | 83 | 1015.2 |
| 20260902014017 | 80 | 215 | 0.9 | 5.2 | 0.00 | 0.00 | 0.00 | 83 | 1015.3 |
| 20260902013516 | 81 | 220 | 1.7 | 5.2 | 0.00 | 0.00 | 0.00 | 83 | 1015.3 |
| 20260902013038 | 81 | 217 | 1.7 | 5.2 | 0.00 | 0.00 | 0.00 | 82 | 1015.3 |
| 20260902012515 | 81 | 233 | 1.7 | 5.2 | 0.00 | 0.00 | 0.00 | 82 | 1015.1 |
| 20260902012022 | 81 | 0 | 0.9 | 5.2 | 0.00 | 0.00 | 0.00 | 82 | 1015.3 |
| 20260902011535 | 81 | 237 | 1.7 | 6.1 | 0.00 | 0.00 | 0.00 | 82 | 1015.3 |
| 20260902011017 | 82 | 0 | 2.6 | 6.1 | 0.00 | 0.00 | 0.00 | 81 | 1015.2 |
| 20260902010521 | 82 | 225 | 0.9 | 7.8 | 0.00 | 0.00 | 0.00 | 81 | 1015.1 |
| 20260902010036 | 82 | 280 | 2.6 | 7.8 | 0.00 | 0.00 | 0.00 | 81 | 1015.1 |
| 20260902005517 | 82 | 221 | 2.6 | 7.8 | 0.00 | 0.00 | 0.00 | 81 | 1015.0 |
| 20260902005017 | 82 | 173 | 1.7 | 4.3 | 0.00 | 0.00 | 0.00 | 81 | 1014.8 |
| 20260902004539 | 82 | 0 | 0.9 | 7.0 | 0.00 | 0.00 | 0.00 | 81 | 1014.8 |
| 20260902004018 | 82 | 0 | 1.7 | 7.0 | 0.00 | 0.00 | 0.00 | 80 | 1014.8 |
| 20260902003517 | 82 | 248 | 3.5 | 6.1 | 0.00 | 0.00 | 0.00 | 81 | 1014.7 |
| 20260902003039 | 82 | 187 | 0.0 | 1.7 | 0.00 | 0.00 | 0.00 | 82 | 1014.8 |
| 20260902002516 | 82 | 0 | 0.0 | 0.9 | 0.00 | 0.00 | 0.00 | 81 | 1014.9 |
| 20260902002016 | 83 | 0 | 0.0 | 0.0 | 0.00 | 0.00 | 0.00 | 80 | 1014.6 |
| 20260902001538 | 83 | 0 | 0.0 | 0.0 | 0.00 | 0.00 | 0.00 | 79 | 1014.6 |
| 20260902001019 | 83 | 0 | 0.0 | 0.0 | 0.00 | 0.00 | 0.00 | 78 | 1014.6 |
| 20260902000520 | 83 | 0 | 0.0 | 0.0 | 0.00 | 0.00 | 0.00 | 77 | 1014.6 |
| 20260902000039 | 84 | 0 | 0.0 | 0.0 | 0.00 | 0.00 | 0.00 | 76 | 1014.7 |
| 20260901235521 | 84 | 0 | 0.0 | 0.9 | 0.00 | 0.00 | 0.00 | 75 | 1014.7 |
| 20260901235017 | 85 | 0 | 0.0 | 0.9 | 0.00 | 0.00 | 0.00 | 74 | 1014.7 |
| 20260901234533 | 85 | 0 | 0.0 | 0.9 | 0.00 | 0.00 | 0.00 | 73 | 1014.7 |
| 20260901234018 | 85 | 0 | 0.0 | 2.6 | 0.00 | 0.00 | 0.00 | 74 | 1014.7 |
| 20260901233518 | 86 | 0 | 0.0 | 2.6 | 0.00 | 0.00 | 0.00 | 73 | 1014.8 |
| 20260901233044 | 86 | 250 | 0.0 | 2.6 | 0.00 | 0.00 | 0.00 | 73 | 1014.7 |
| 20260901232518 | 86 | 0 | 0.0 | 2.6 | 0.00 | 0.00 | 0.00 | 72 | 1014.9 |
| 20260901232016 | 86 | 234 | 0.0 | 4.3 | 0.00 | 0.00 | 0.00 | 71 | 1014.9 |
| 20260901231538 | 86 | 252 | 0.0 | 4.3 | 0.00 | 0.00 | 0.00 | 71 | 1014.9 |
| 20260901231016 | 87 | 255 | 0.9 | 4.3 | 0.00 | 0.00 | 0.00 | 70 | 1015.0 |
| 20260901230517 | 87 | 223 | 0.0 | 3.5 | 0.00 | 0.00 | 0.00 | 69 | 1014.9 |
| 20260901230038 | 87 | 0 | 0.0 | 6.1 | 0.00 | 0.00 | 0.00 | 68 | 1014.9 |
| 20260901225520 | 88 | 0 | 0.0 | 6.1 | 0.00 | 0.06 | 0.00 | 68 | 1014.7 |
| 20260901225024 | 88 | 239 | 0.9 | 6.1 | 0.00 | 0.06 | 0.00 | 67 | 1014.7 |
| 20260901224543 | 88 | 250 | 0.9 | 4.3 | 0.00 | 0.06 | 0.00 | 66 | 1014.7 |
| 20260901224019 | 89 | 0 | 0.9 | 5.2 | 0.00 | 0.06 | 0.00 | 66 | 1014.7 |
| 20260901223517 | 89 | 268 | 0.9 | 5.2 | 0.00 | 0.06 | 0.00 | 65 | 1014.7 |
| 20260901223035 | 89 | 252 | 0.9 | 4.3 | 0.00 | 0.06 | 0.00 | 65 | 1014.7 |
| 20260901222517 | 89 | 253 | 0.0 | 6.1 | 0.00 | 0.06 | 0.00 | 66 | 1014.7 |
| 20260901222017 | 89 | 194 | 0.0 | 6.1 | 0.00 | 0.06 | 0.00 | 66 | 1014.7 |